Weather History for KHYW - January, 2013

Change the Weather History Date:

Tuesday, January 29, 2013

  Actual Average Record
Temperature  
Mean Temperature 57 °F -  
Max Temperature 77 °F 57 °F 53 °F (2015)
Min Temperature 37 °F 32 °F 23 °F (2014)
Degree Days  
Heating Degree Days 8    
Growing Degree Days 7 (Base 50)    
Moisture  
Dew Point 52 °F    
Average Humidity 87    
Maximum Humidity 100    
Minimum Humidity 53    
Precipitation  
Precipitation 0.00 in - - ()
Sea Level Pressure  
Sea Level Pressure 30.21 in    
Wind  
Wind Speed 2 mph (SSW)    
Max Wind Speed 10 mph    
Max Gust Speed -    
Visibility 5 miles    
Events Fog    
Averages and records for this station are not official NWS values.
T = Trace of Precipitation, MM = Missing Value Source: NWS Daily Summary

Daily Weather History Graph

Daily Weather History Graph

Search for Another Location

Airport or City:

Trip Planner

Search our weather history database for the weather conditions in past years. The results will help you decide how hot, cold, wet, or windy it might be!

Date:

Astronomy

Jan. 29, 2013 Rise Set
Actual Time 7:15 AM EST 5:44 PM EST
Civil Twilight 6:48 AM EST 6:11 PM EST
Nautical Twilight 6:18 AM EST 6:41 PM EST
Astronomical Twilight 5:49 AM EST 7:10 PM EST
Moon 8:27 PM EST (1/29) 8:20 AM EST (1/29)
Length of Visible Light 11h 22m
Length of Day
10h 29m
Waning Gibbous, 94% of the Moon is Illuminated
Jan 29
Waning Gibbous
Feb 3
Last Quarter
Feb 10
New
Feb 17
First Quarter
Feb 25
Full

Hourly Weather History & Observations

Time (EST) Temp. Dew Point Humidity Pressure Visibility Wind Dir Wind Speed Gust Speed Precip Events Conditions
12:15 AM 41.0 °F 41.0 °F 100% 30.29 in 2.0 mi Calm Calm - N/A   Overcast
12:35 AM 41.0 °F 41.0 °F 100% 30.28 in 3.0 mi Calm Calm - N/A   Mostly Cloudy
12:55 AM 41.0 °F 41.0 °F 100% 30.29 in 4.0 mi Calm Calm - N/A   Mostly Cloudy
1:15 AM 41.0 °F 41.0 °F 100% 30.28 in 3.0 mi Calm Calm - N/A   Mostly Cloudy
1:35 AM 41.0 °F 41.0 °F 100% 30.28 in 4.0 mi Calm Calm - N/A   Scattered Clouds
1:55 AM 39.2 °F 39.2 °F 100% 30.28 in 5.0 mi Calm Calm - N/A   Clear
2:15 AM 39.2 °F 39.2 °F 100% 30.27 in 3.0 mi Calm Calm - N/A   Clear
2:35 AM 41.0 °F 41.0 °F 100% 30.27 in 4.0 mi Calm Calm - N/A   Clear
2:55 AM 39.2 °F 39.2 °F 100% 30.27 in 4.0 mi Calm Calm - N/A   Clear
3:15 AM 39.2 °F 39.2 °F 100% 30.27 in 5.0 mi Calm Calm - N/A   Clear
3:55 AM 39.2 °F 39.2 °F 100% 30.26 in 4.0 mi Calm Calm - N/A   Clear
4:15 AM 39.2 °F 39.2 °F 100% 30.26 in 5.0 mi Calm Calm - N/A   Clear
4:35 AM 39.2 °F 39.2 °F 100% 30.26 in 5.0 mi Calm Calm - N/A   Scattered Clouds
4:55 AM 37.4 °F 37.4 °F 100% 30.25 in 5.0 mi Calm Calm - N/A   Overcast
5:15 AM 39.2 °F 39.2 °F 100% 30.26 in 5.0 mi Calm Calm - N/A   Scattered Clouds
5:35 AM 39.2 °F 39.2 °F 100% 30.26 in 5.0 mi Calm Calm - N/A   Clear
6:15 AM 39.2 °F 39.2 °F 100% 30.26 in 5.0 mi Calm Calm - N/A   Clear
6:35 AM 39.2 °F 39.2 °F 100% 30.26 in 5.0 mi Calm Calm - N/A   Clear
6:55 AM 39.2 °F 39.2 °F 100% 30.27 in 7.0 mi Calm Calm - N/A   Scattered Clouds
7:15 AM 39.2 °F 39.2 °F 100% 30.27 in 5.0 mi Calm Calm - N/A   Overcast
7:35 AM 41.0 °F 41.0 °F 100% 30.27 in 3.0 mi Calm Calm - N/A   Overcast
7:55 AM 42.8 °F 42.8 °F 100% 30.27 in 3.0 mi Calm Calm - N/A   Overcast
8:15 AM 42.8 °F 42.8 °F 100% 30.27 in 0.5 mi Calm Calm - N/A Fog Fog
8:35 AM 44.6 °F 44.6 °F 100% 30.27 in 0.2 mi Calm Calm - N/A Fog Fog
8:55 AM 46.4 °F 46.4 °F 100% 30.27 in 0.2 mi Calm Calm - N/A Fog Fog
9:15 AM 50.0 °F 50.0 °F 100% 30.27 in 0.2 mi Calm Calm - N/A Fog Fog
9:35 AM 51.8 °F 51.8 °F 100% 30.27 in 0.2 mi SSW 3.5 mph - N/A Fog Fog
9:55 AM 53.6 °F 53.6 °F 100% 30.27 in 0.2 mi Calm Calm - N/A Fog Fog
10:15 AM 55.4 °F 55.4 °F 100% 30.27 in 1.5 mi Calm Calm - N/A   Overcast
10:35 AM 57.2 °F 57.2 °F 100% 30.27 in 4.0 mi Calm Calm - N/A   Overcast
10:55 AM 60.8 °F 60.8 °F 100% 30.26 in 5.0 mi Calm Calm - N/A   Scattered Clouds
11:15 AM 64.4 °F 60.8 °F 88% 30.25 in 7.0 mi SSW 3.5 mph - N/A   Clear
11:35 AM 68.0 °F 59.0 °F 73% 30.24 in 7.0 mi SW 6.9 mph - N/A   Clear
11:55 AM 69.8 °F 60.8 °F 73% 30.23 in 5.0 mi SW 5.8 mph - N/A   Haze
12:15 PM 71.6 °F 59.0 °F 64% 30.22 in 7.0 mi SW 10.4 mph - N/A   Clear
12:35 PM 73.4 °F 59.0 °F 61% 30.20 in 7.0 mi SW 9.2 mph - N/A   Clear
12:55 PM 73.4 °F 59.0 °F 61% 30.19 in 5.0 mi SW 6.9 mph - N/A   Haze
1:15 PM 73.4 °F 59.0 °F 61% 30.18 in 7.0 mi SW 9.2 mph - N/A   Scattered Clouds
1:35 PM 75.2 °F 59.0 °F 57% 30.17 in 7.0 mi SW 9.2 mph - N/A   Scattered Clouds
1:55 PM 77.0 °F 59.0 °F 54% 30.15 in 5.0 mi SSW 9.2 mph - N/A   Haze
2:15 PM 75.2 °F 59.0 °F 57% 30.15 in 5.0 mi SW 6.9 mph - N/A   Haze
2:35 PM 75.2 °F 59.0 °F 57% 30.15 in 7.0 mi SW 6.9 mph - N/A   Scattered Clouds
2:55 PM 77.0 °F 59.0 °F 54% 30.14 in 7.0 mi SW 4.6 mph - N/A   Scattered Clouds
3:15 PM 77.0 °F 59.0 °F 54% 30.14 in 7.0 mi SW 6.9 mph - N/A   Scattered Clouds
3:35 PM 77.0 °F 59.0 °F 54% 30.14 in 7.0 mi SSW 6.9 mph - N/A   Scattered Clouds
3:55 PM 75.2 °F 57.2 °F 53% 30.15 in 7.0 mi SW 8.1 mph - N/A   Clear
4:15 PM 75.2 °F 59.0 °F 57% 30.14 in 7.0 mi SSW 6.9 mph - N/A   Clear
4:35 PM 75.2 °F 59.0 °F 57% 30.14 in 4.0 mi SSW 4.6 mph - N/A   Haze
4:55 PM 73.4 °F 59.0 °F 61% 30.14 in 7.0 mi SSW 5.8 mph - N/A   Clear
5:15 PM 71.6 °F 59.0 °F 64% 30.14 in 7.0 mi South 3.5 mph - N/A   Scattered Clouds
5:35 PM 68.0 °F 59.0 °F 73% 30.14 in 7.0 mi South 4.6 mph - N/A   Scattered Clouds
5:55 PM 68.0 °F 59.0 °F 73% 30.14 in 7.0 mi South 4.6 mph - N/A   Clear
6:15 PM 66.2 °F 59.0 °F 78% 30.14 in 7.0 mi South 4.6 mph - N/A   Clear
6:35 PM 66.2 °F 59.0 °F 78% 30.14 in 7.0 mi South 4.6 mph - N/A   Clear
6:55 PM 64.4 °F 59.0 °F 83% 30.14 in 7.0 mi South 5.8 mph - N/A   Clear
7:15 PM 64.4 °F 59.0 °F 83% 30.14 in 7.0 mi South 5.8 mph - N/A   Clear
7:35 PM 64.4 °F 59.0 °F 83% 30.14 in 7.0 mi South 6.9 mph - N/A   Clear
7:55 PM 64.4 °F 60.8 °F 88% 30.14 in 7.0 mi SSW 6.9 mph - N/A   Clear
8:15 PM 64.4 °F 60.8 °F 88% 30.15 in 7.0 mi South 5.8 mph - N/A   Clear
8:35 PM 64.4 °F 64.4 °F 100% 30.15 in 7.0 mi South 6.9 mph - N/A   Scattered Clouds
8:55 PM 62.6 °F 62.6 °F 100% 30.15 in 7.0 mi South 5.8 mph - N/A   Scattered Clouds
9:15 PM 62.6 °F 62.6 °F 100% 30.15 in 7.0 mi SSW 4.6 mph - N/A   Clear
9:35 PM 62.6 °F 62.6 °F 100% 30.15 in 7.0 mi South 3.5 mph - N/A   Clear
9:55 PM 60.8 °F 60.8 °F 100% 30.15 in 5.0 mi South 4.6 mph - N/A   Clear
10:15 PM 60.8 °F 60.8 °F 100% 30.15 in 5.0 mi South 3.5 mph - N/A   Clear
10:35 PM 60.8 °F 60.8 °F 100% 30.15 in 5.0 mi SSE 3.5 mph - N/A   Scattered Clouds
10:55 PM 60.8 °F 60.8 °F 100% 30.15 in 5.0 mi SSE 3.5 mph - N/A   Clear
11:15 PM 60.8 °F 60.8 °F 100% 30.15 in 5.0 mi SSE 3.5 mph - N/A   Clear
11:35 PM 60.8 °F 60.8 °F 100% 30.14 in 1.5 mi Calm Calm - N/A   Mist
11:55 PM 59.0 °F 59.0 °F 100% 30.14 in 0.2 mi Calm Calm - N/A Fog Fog